DECAYED
Showing default

CY-SAT-1, 61501 (Decayed)

Orbit data source: Space-Track

CY-SAT-1, 61501 was a payload satellite owned by Iowa State (US) in LEO that was delivered to the ISS. Payload-class satellites include a variety of spacecraft equipped with specific instruments for various scientific and technological missions. These include communications satellites like Starlink; space stations such as the ISS; scientific satellites like the Hubble; Earth observation satellites from companies like Planet Labs, Umbra, and HawkEye 360; GPS; miniature CubeSats for education and research; and military/defense satellites.

Not visible in the next 10 days
Identifier
61501, 1998-067WZ
Orbit
Decayed
Country
Flag of USUS
Related business
Flag of USIowa State University (US)
Manufacturer
Iowa State
Mission
Decayed Amateur Earth Obs Sci
Bus & Motor
CUBESAT 3U, Unknown motor
Mass
4 kg wet, 4 kg dry
Launch date (UTC)
1998-11-20 (28 years ago)
Launch vehicle
FALCON 9
Launch site
Tyuratam Missile And Space Complex (TTMTR)
Object type
Payload
Rocket body
Debris
Shape & HBR
Box + 2 Pan, 0.2 m
Radar Cross Section
0.035 m², Medium (>0.1 m² and < 1m²)

Expand to show TLE details & history
Last TLE update: 2 years ago

TLE from 2 years ago
0 CY-SAT-1
1 61501U 98067WZ  25007.99830307  .12476033  12414-4  78718-3 0  9992
2 61501  51.6096   6.5034 0002121 115.6763 244.4483 16.41142165 14437
Epoch: 2025-01-07T23:57Z
TLE epoch observation values (Epoch: 2025-01-07T23:57:33.385Z)
Latitude
-0.00002°
Longitude
-100.68315°
Altitude
164.131 km
Speed
7.809 km/s
True Right ascension
00h 26m 00s
True Declination
0° 00' 00"
Sunlit
Object was in daylight at epoch
Visualization orbit readout
Latitude
Unknown
Longitude
Unknown
Altitude
Unknown
Speed
Unknown
Apparent Right ascension
Unknown
Apparent Declination
Unknown
Sunlit
N/A
Visualization observer readout
Local Sidereal Time
01:59:43
Azimuth
Unknown
Elevation
Unknown
Doppler factor
Unknown
Orbital elements
Apogee altitude
164.686 km
Perigee altitude
161.911 km
Semi-major axis
6,541.436 km
Eccentricity
0.00021
Inclination
51.6096°
RAAN
6.5034°
Arg. of periapsis
115.6763°
True anomaly
244.42637°
Mean anomaly
244.4483°
Eccentric anomaly
244.43734°
Mean motion
4.10236 °/min
Orbital period
87.75 mins
BSTAR
0.00078718
Loading maneuver chart data...
Computing Atmospheric mass density...

Documentation

Showing up to 5 results
|